Regional Weather Roundup
Issued by NWS Green Bay, WI

Home | Current Version | Previous Version | Graphics & Text | Print | Product List | Glossary Off
Versions: 1 2 3 4 5 6 7 8 9 10 11 12 13 14 15 16 17 18 19 20 21 22 23 24 25 26 27 28 29 30 31 32 33 34 35 36 37 38 39 40 41 42 43 44 45 46 47 48 49 50

000
ASUS43 KGRB 262010
RWRGRB

NORTH-CENTRAL AND NORTHEAST WISCONSIN REGIONAL WEATHER ROUNDUP
NATIONAL WEATHER SERVICE GREEN BAY WI
200 PM CST FRI DEC 26 2014

WIZ005-009-010>012-018-019-262100-
NORTH CENTRAL WISCONSIN

CITY           SKY/WX    TMP DP  RH WIND       PRES   REMARKS
IRONWOOD       CLOUDY    30  28  93 N8        29.97R
MANITOWISH WTR CLOUDY    30  29  96 N5        29.95R
ARBOR VITAE    MIX PCPN  32  30  92 NE5       29.95R
EAGLE RIVER    MIX PCPN  30  29  98 NE7       29.94S
LAND O LAKES   CLOUDY    31  29  94 CALM      29.95S
RHINELANDER    CLOUDY    30  29  96 N8        29.94S FOG
PHILLIPS       CLOUDY    30  28  93 NE8       29.95R
ANTIGO         CLOUDY    32  32 100 NE5       29.93S FOG
TOMAHAWK       CLOUDY    32  30  92 CALM      29.94S FOG
MERRILL        CLOUDY    33  32  96 NE3       29.94R FOG
$$

WIZ013-073-262100-
NORTHEAST WISCONSIN

CITY           SKY/WX    TMP DP  RH WIND       PRES   REMARKS
IRON MOUNTAIN  CLOUDY    33  30  88 N5        29.94S
MARINETTE      CLOUDY    36  34  93 E5        29.96R
OCONTO         CLOUDY    35  35  99 N3        29.96R
$$

WIZ017-030-035>037-045-262100-
CENTRAL WISCONSIN

CITY           SKY/WX    TMP DP  RH WIND       PRES   REMARKS
MEDFORD        CLOUDY    32  30  92 N8        29.93R FOG
WAUSAU         CLOUDY    35  30  82 N5        29.92S
MOSINEE        PTSUNNY   32  32 100 E5        29.94R FOG
MARSHFIELD     SUNNY     38  31  76 E7        29.92S
WISC RAPIDS    PTSUNNY   44  32  62 N6        29.94R
STEVENS POINT  FOG       31  30  97 N7        29.95R VSB 1
WAUPACA        MOSUNNY   37  36  96 N9        29.94R FOG
SHAWANO        CLOUDY    35  33  95 CALM      29.96R FOG
CLINTONVILLE   FOG       32  32 100 N3        29.95R VSB 1
$$

WIZ038-039-048-051-262100-
FOX VALLEY

CITY           SKY/WX    TMP DP  RH WIND       PRES   REMARKS
NWS GREEN BAY  PTSUNNY   45  37  73 CALM      29.95S
APPLETON       MOSUNNY   41  34  75 SW6       29.94S
OSHKOSH        MOSUNNY   44  36  73 S5        29.94S
FOND DU LAC    MOSUNNY   46  36  68 W6        29.94S
$$

WIZ022-050-052-262100-
EAST CENTRAL WISCONSIN

CITY           SKY/WX    TMP DP  RH WIND       PRES   REMARKS
STURGEON BAY   CLOUDY    37  32  81 N7        29.96S
MANITOWOC      CLOUDY    42  37  82 SE7       29.96R
SHEBOYGAN      PTSUNNY   47  35  63 NW6       29.95R
$$

LMZ563-521-522-541>543-262100-
LAKESHORE

STATION/POSITION TIME  TEMP    WIND        PRES    VSBY  WAVE
                       AIR SEA DIR/SP/G                  HT/PER
                 (UTC) (F)     (DEG/KT/KT) (MB)    (MI)  (FT/S)
SHEBOYGAN LKSHOR 2000   43 39  170/  7/  8 1014.9R
KEWAUNEE LKSHORE 2000   37     180/  3/  6 1013.3S
ALGOMA MARINA    2000           CALM  /  3   N/A
NORTHPORT PIER   2000   36      CALM  /  4 1014.6S
SISTER BAY LKSHO 1900             CALM       N/A
STURGEON BAY CG  1900   38 34  130/  4     1015.8          1
CHAMBERS ISLAND  2000   35     360/  4/  6 1014.6S
MENOMINEE LKSHOR 2000   34      20/  4/  4 1015.1R
$$


USA.gov is the U.S. government's official web portal to all federal, state and local government web resources and services.